www.pogodaiklimat.ru

Погода и климат >> Архив погоды >> Норвегия >> Мосьен аэропорт


ПОГОДА в Мосьен аэропорту

  • Прогноз погоды в Мосьен аэропорту
  • Монитор погоды в Мосьен аэропорту

АРХИВ ПОГОДЫ в Мосьен аэропорту

Время (UTC), дата Ветер
(напр.,м/с)
 
Видим.   Явления Облачность Т
(С)
Тd
(С)
f
(%)
Тe
(С)
Тes
(С)
Комфортность P
(гПа)
Po
(гПа)
Тmin
(С)
Tmax
(С)
R
(мм)
R24
(мм)
S
(см)
01 16.09 Ю 1
{3}
н/о н/о +4.8 +3.8 93 +3 +3 994.6 985.8
02 16.09 С 1
{2}
н/о н/о +3.8 +2.8 93 +2 +2 995.3 986.5
03 16.09 ЮЗ 1
{2}
н/о н/о +2.9 +2.1 94 +1 +1 995.6 986.7
04 16.09 штиль 0
{2}
н/о н/о +3.1 +2.4 95 +2 +2 996.1 987.2
05 16.09 З 1
{2}
н/о н/о +2.9 +2.1 94 +1 +1 996.5 987.7
06 16.09 Ю 1
{3}
н/о н/о +2.8 +1.9 94 +1 +1 996.9 988.0 +2.4 +7.2
07 16.09 ЮВ 1
{2}
н/о н/о +5.7 +4.9 95 +4 +4 997.3 988.5
08 16.09 Ю 1
{2}
н/о н/о +7.9 +5.5 85 +7 +7 997.6 988.8
09 16.09 В 1
{2}
н/о н/о +10.6 +6.3 75 +10 +10 997.7 989.0
10 16.09 ЮВ 1
{2}
н/о н/о +11.8 +5.6 66 +12 +12 997.5 988.9
11 16.09 штиль 0
{3}
н/о н/о +11.6 +6.3 70 +11 +11 997.8 989.2
12 16.09 Ю 2
{4}
н/о н/о +12.9 +3.9 54 +12 +12 997.6 989.1
13 16.09 Ю 3
{5}
н/о н/о +12.1 +4.4 59 +11 +11 997.8 989.1
14 16.09 ЮЗ 3
{5}
н/о н/о +12.1 +4.6 60 +11 +11 997.5 988.9
15 16.09 Ю 3
{4}
н/о н/о +11.5 +5.2 65 +10 +10 997.4 988.8
16 16.09 Ю 2
{4}
н/о н/о +10.4 +5.4 71 +9 +9 997.4 988.8
17 16.09 Ю 2
{4}
н/о н/о +9.2 +5.0 75 +8 +8 997.7 989.0
18 16.09 Ю 2
{5}
н/о н/о +8.2 +4.6 78 +6 +6 997.9 989.1 +2.7 +13.1
19 16.09 ЮЗ 2
{4}
н/о н/о +7.3 +4.5 82 +5 +5 998.0 989.3
20 16.09 ЮЗ 1
{3}
н/о н/о +6.2 +4.5 89 +5 +5 998.2 989.4
21 16.09 Ю 1
{2}
н/о н/о +6.1 +4.6 90 +5 +5 998.3 989.5
22 16.09 Ю 2
{2}
н/о н/о +6.2 +4.6 89 +4 +4 998.4 989.6
23 16.09 ЮВ 1
{1}
н/о н/о +6.1 +4.7 91 +5 +5 998.5 989.7
00 17.09 ЮВ 1
{4}
н/о н/о +6.2 +4.8 91 +5 +5 998.7 989.9
01 17.09 штиль 0
{1}
н/о н/о +5.9 +4.8 93 +5 +5 998.8 989.9
02 17.09 Ю 1
{1}
н/о н/о +5.7 +4.7 93 +4 +4 999.0 990.1
03 17.09 Ю 1
{2}
н/о н/о +5.4 +4.4 93 +4 +4 999.1 990.2
04 17.09 ЮЗ 1
{1}
н/о н/о +5.3 +4.4 94 +4 +4 999.6 990.7
05 17.09 ЮЗ 1
{1}
н/о н/о +4.9 +4.1 95 +3 +3 1000.1 991.2
06 17.09 ЮВ 1
{2}
н/о н/о +5.1 +4.3 95 +4 +4 1000.5 991.7 +4.4 +8.2
07 17.09 Ю 1
{1}
н/о н/о +5.9 +5.1 95 +5 +5 1001.1 992.3
08 17.09 В 1
{2}
н/о н/о +7.1 +6.0 93 +6 +6 1001.7 992.9
09 17.09 В 1
{2}
н/о н/о +8.9 +6.7 86 +8 +8 1002.1 993.4
10 17.09 ЮВ 1
{2}
н/о н/о +10.7 +7.0 78 +10 +10 1002.6 993.9
11 17.09 Ю 1
{2}
н/о н/о +12.1 +3.8 57 +12 +12 1003.0 994.4
12 17.09 ЮЗ 1
{5}
н/о н/о +12.1 +4.8 61 +12 +12 1003.4 994.7
13 17.09 З 2
{7}
н/о н/о +9.3 +4.2 70 +8 +8 1004.2 995.4
14 17.09 С 2
{6}
н/о н/о +9.2 +4.2 71 +8 +8 1004.8 996.1
15 17.09 Ю 2
{4}
н/о н/о +10.2 +5.0 70 +9 +9 1005.1 996.3
16 17.09 ЮЗ 1
{3}
н/о н/о +9.9 +5.6 75 +10 +10 1005.5 996.8
17 17.09 СЗ 2
{3}
н/о н/о +9.3 +5.3 76 +8 +8 1005.7 997.0
18 17.09 З 2
{7}
н/о н/о +8.3 +5.4 82 +6 +6 1006.3 997.5 +5.1 +12.8
19 17.09 Ю 2
{3}
н/о н/о +6.4 +4.9 90 +4 +4 1006.7 997.8
20 17.09 штиль 0
{2}
н/о н/о +6.5 +5.2 91 +5 +5 1007.2 998.3
21 17.09 Ю 2
{2}
н/о н/о +6.3 +5.2 93 +4 +4 1007.6 998.7
22 17.09 Ю 1
{3}
н/о н/о +6.2 +5.2 93 +5 +5 1007.9 999.0
23 17.09 ЮЗ 1
{2}
н/о н/о +6.0 +5.1 94 +5 +5 1008.1 999.3
00 18.09 Ю 1
{3}
н/о н/о +6.2 +5.2 93 +5 +5 1008.4 999.5
01 18.09 Ю 1
{2}
н/о н/о +5.9 +5.0 94 +5 +5 1008.5 999.6
02 18.09 Ю 2
{2}
н/о н/о +5.9 +5.0 94 +3 +3 1008.8 999.9
03 18.09 ЮВ 2
{3}
н/о н/о +5.8 +4.8 93 +3 +3 1008.9 1000.0
04 18.09 ЮЗ 1
{3}
н/о н/о +5.7 +4.8 94 +4 +4 1009.1 1000.2
05 18.09 ЮЗ 2
{3}
н/о н/о +5.8 +4.9 94 +3 +3 1009.4 1000.5
06 18.09 ЮВ 1
{3}
н/о н/о +6.0 +5.1 94 +5 +5 1009.8 1000.9 +5.5 +8.3 0.9
07 18.09 ЮВ 1
{2}
н/о н/о +6.9 +6.0 94 +6 +6 1010.2 1001.3
08 18.09 ЮВ 1
{3}
н/о н/о +7.8 +6.7 93 +7 +7 1010.8 1002.0
09 18.09 З 1
{2}
н/о н/о +9.4 +6.4 82 +9 +9 1011.4 1002.6
10 18.09
{3}
н/о н/о +10.3 +6.4 77 1011.7 1002.9
11 18.09 С 3
{5}
н/о н/о +10.4 +5.7 73 +8 +8 1012.2 1003.5
12 18.09 С 3
{8}
н/о н/о +10.7 +4.8 67 +9 +9 1012.9 1004.1
13 18.09 С 5
{8}
н/о н/о +9.6 +4.1 69 +7 +7 1013.5 1004.7
14 18.09 СЗ 3
{7}
н/о н/о +10.6 +2.9 59 +9 +9 1013.9 1005.1
15 18.09 СЗ 5
{9}
н/о н/о +10.5 +2.5 58 +8 +8 1014.3 1005.5
16 18.09 СЗ 2
{11}
н/о н/о +7.2 +4.2 81 +5 +5 1015.3 1006.3
17 18.09 С 3
{7}
н/о н/о +7.2 +3.9 80 +4 +4 1015.7 1006.8
18 18.09 СЗ 3
{11}
н/о н/о +7.6 +1.2 64 +5 +5 1016.3 1007.4 +6.0 +11.2 0.2
19 18.09 Ю 1
{6}
н/о н/о +6.3 +1.4 71 +5 +5 1016.8 1007.8
20 18.09 ЮЗ 1
{3}
н/о н/о +4.7 +2.3 84 +3 +3 1017.2 1008.2
21 18.09 В 1
{2}
н/о н/о +4.5 +2.8 89 +3 +3 1017.7 1008.7
22 18.09 В 2
{6}
н/о н/о +5.0 +2.7 85 +2 +2 1018.5 1009.5
23 18.09 штиль 0
{3}
н/о н/о +4.2 +2.8 91 +3 +3 1018.6 1009.6
00 19.09 Ю 1
{6}
н/о н/о +3.3 +2.2 92 +2 +2 1019.5 1010.4
01 19.09 ЮЗ 1
{2}
н/о н/о +2.4 +1.5 94 +1 +1 1019.9 1010.8
02 19.09 ЮЗ 1
{2}
н/о н/о +1.6 +0.7 94 -0 -0 1020.3 1011.1
03 19.09 З 1
{3}
н/о н/о +1.8 +1.0 94 -0 -0 1020.6 1011.4
04 19.09 Ю 2
{4}
н/о н/о +2.4 +1.7 95 -1 -1 1020.7 1011.6
05 19.09 ЮЗ 2
{4}
н/о н/о +2.9 +1.8 92 -0 -0 1020.8 1011.7
06 19.09 ЮВ 2
{4}
н/о н/о +2.7 +1.7 93 -1 -1 1020.7 1011.6 +0.9 +7.6 1
07 19.09 ЮВ 1
{2}
н/о н/о +3.9 +2.9 93 +2 +2 1020.9 1011.8
08 19.09 В 1
{3}
н/о н/о +4.3 +3.1 92 +3 +3 1021.1 1012.1
09 19.09 ЮВ 1
{2}
н/о н/о +5.4 +3.7 89 +4 +4 1021.4 1012.4
10 19.09 ЮВ 1
{3}
н/о н/о +6.2 +3.3 82 +5 +5 1021.3 1012.3
11 19.09 В 1
{2}
н/о н/о +8.5 +3.6 71 +8 +8 1021.1 1012.2
12 19.09 ЮВ 2
{8}
н/о н/о +7.1 +3.4 77 +5 +5 1021.4 1012.4
13 19.09 З 3
{7}
н/о н/о +8.4 +2.4 66 +6 +6 1021.3 1012.4
14 19.09 СЗ 2
{6}
н/о н/о +7.8 +2.8 71 +6 +6 1021.0 1012.1
15 19.09 СЗ 2
{11}
н/о н/о +6.5 +2.5 76 +4 +4 1020.7 1011.8
16 19.09 С 2
{7}
н/о н/о +6.1 +2.6 78 +4 +4 1020.8 1011.8
17 19.09 ЮЗ 1
{3}
н/о н/о +4.5 +2.6 87 +3 +3 1020.4 1011.4
18 19.09 ЮЗ 2
{11}
н/о н/о +3.6 +1.9 89 +1 +1 1020.5 1011.4 +2.7 +8.8 2
19 19.09 ЮВ 1
{3}
н/о н/о +3.2 +1.8 91 +2 +2 1020.7 1011.6
20 19.09 ЮЗ 1
{3}
н/о н/о +3.1 +1.9 92 +1 +1 1019.9 1010.8
21 19.09 ЮЗ 2
{2}
н/о н/о +1.8 +0.9 94 -2 -2 1019.7 1010.6
22 19.09 ЮЗ 2
{3}
н/о н/о +2.7 +1.9 94 -1 -1 1019.3 1010.2
23 19.09 ЮЗ 3
{4}
н/о н/о +2.9 +2.1 94 -1 -1 1018.9 1009.8
00 20.09 Ю 1
{4}
н/о н/о +2.5 +1.7 94 +1 +1 1018.3 1009.2
01 20.09 штиль 0
{2}
н/о н/о +2.4 +1.6 94 +1 +1 1017.6 1008.5
02 20.09 Ю 1
{2}
н/о н/о +2.3 +1.6 95 0 0 1016.9 1007.8
03 20.09 штиль 0
{2}
н/о н/о +2.2 +1.5 95 +1 +1 1015.9 1006.9
04 20.09 штиль 0
{1}
н/о н/о +2.3 +1.6 95 +1 +1 1015.6 1006.5
05 20.09 штиль 0
{1}
н/о н/о +2.6 +1.9 95 +1 +1 1014.6 1005.6
06 20.09 штиль 0
{2}
н/о н/о +3.3 +2.6 95 +2 +2 1014.1 1005.1 +1.6 +3.6 0.6
07 20.09 Ю 1
{2}
н/о н/о +3.8 +3.0 95 +2 +2 1013.4 1004.4
08 20.09 ЮВ 2
{3}
н/о н/о +4.2 +3.1 93 +1 +1 1012.9 1003.9
09 20.09 ЮВ 2
{3}
н/о н/о +4.1 +2.9 92 +1 +1 1012.4 1003.4
10 20.09 ЮВ 3
{4}
н/о н/о +4.1 +2.6 90 0 0 1012.1 1003.1 1
11 20.09 ЮВ 3
{4}
н/о н/о +3.8 +2.4 91 -0 -0 1011.8 1002.8
12 20.09 Ю 2
{4}
н/о н/о +3.8 +2.4 91 +1 +1 1011.4 1002.4 1
13 20.09 Ю 3
{4}
н/о н/о +3.6 +2.2 91 -0 -0 1011.1 1002.1
14 20.09 ЮВ 2
{4}
н/о н/о +3.7 +2.4 91 +1 +1 1010.4 1001.5
15 20.09 ЮВ 1
{3}
н/о н/о +3.8 +2.7 93 +2 +2 1010.1 1001.1 1
16 20.09 З 1
{1}
н/о н/о +3.9 +2.8 93 +2 +2 1009.8 1000.8 1
17 20.09 штиль 0
{1}
н/о н/о +3.9 +2.9 93 +3 +3 1009.6 1000.6 1
18 20.09 штиль 0
{4}
н/о н/о +3.9 +3.0 94 +3 +3 1009.2 1000.3 +3.3 +4.2 13
19 20.09 С 2
{2}
н/о н/о +4.0 +3.2 95 +1 +1 1009.4 1000.4 1
20 20.09 штиль 0
{2}
н/о н/о +4.0 +3.2 95 +3 +3 1009.2 1000.2 1
21 20.09 С 1
{1}
н/о н/о +4.1 +3.3 95 +3 +3 1009.1 1000.2 1
22 20.09 СЗ 1
{2}
н/о н/о +4.1 +3.3 95 +3 +3 1009.3 1000.4 1
23 20.09 штиль 0
{1}
н/о н/о +4.2 +3.4 95 +3 +3 1009.3 1000.4 1
00 21.09 штиль 0
{2}
н/о н/о +4.2 +3.4 95 +3 +3 1009.6 1000.6 1
01 21.09 штиль 0
{1}
н/о н/о +4.3 +3.6 95 +3 +3 1010.2 1001.3 1
02 21.09 Ю 2
{2}
н/о н/о +4.2 +3.5 95 +1 +1 1010.2 1001.2
03 21.09 штиль 0
{2}
н/о н/о +4.1 +3.4 95 +3 +3 1010.7 1001.7
04 21.09 Ю 1
{2}
н/о н/о +4.2 +3.5 95 +3 +3 1011.3 1002.3
05 21.09 ЮЗ 2
{3}
н/о н/о +4.2 +3.5 95 +1 +1 1011.6 1002.6
06 21.09 ЮЗ 1
{3}
н/о н/о +4.4 +3.7 95 +3 +3 1012.4 1003.4 +3.9 +4.4 11
07 21.09 В 1
{3}
н/о н/о +4.7 +4.0 95 +3 +3 1012.7 1003.7
08 21.09 С 1
{2}
н/о н/о +5.5 +4.8 95 +4 +4 1013.1 1004.1
09 21.09 С 1
{3}
н/о н/о +5.9 +5.1 95 +5 +5 1013.6 1004.7
10 21.09 В 1
{2}
н/о н/о +7.0 +5.9 93 +6 +6 1013.9 1005.0
11 21.09 Ю 1
{2}
н/о н/о +7.9 +6.0 88 +7 +7 1014.4 1005.5
12 21.09 ЮВ 1
{3}
н/о н/о +8.5 +6.4 87 +8 +8 1014.7 1005.9
13 21.09 штиль 0
{2}
н/о н/о +8.5 +6.4 87 +8 +8 1015.1 1006.2
14 21.09 СЗ 2
{4}
н/о н/о +8.7 +4.7 76 +7 +7 1015.2 1006.3
15 21.09 СЗ 2
{3}
н/о н/о +8.4 +3.9 73 +7 +7 1015.4 1006.5
16 21.09 Ю 1
{2}
н/о н/о +7.4 +5.0 85 +7 +7 1015.5 1006.6
17 21.09 В 1
{2}
н/о н/о +6.4 +4.9 90 +5 +5 1016.0 1007.0
18 21.09 Ю 1
{3}
н/о н/о +5.5 +4.3 92 +4 +4 1016.5 1007.5 +4.4 +8.9
19 21.09 З 1
{2}
н/о н/о +5.1 +4.1 93 +4 +4 1016.8 1007.8
20 21.09 штиль 0
{2}
н/о н/о +4.8 +3.9 94 +4 +4 1017.2 1008.1
21 21.09 В 1
{2}
н/о н/о +4.2 +3.3 94 +3 +3 1017.6 1008.6
22 21.09 штиль 0
{2}
н/о н/о +3.3 +2.5 94 +2 +2 1017.8 1008.8
23 21.09 штиль 0
{1}
н/о н/о +2.1 +1.3 94 +1 +1 1018.3 1009.2
00 22.09 ЮВ 1
{2}
н/о н/о +1.4 +0.6 94 -1 -1 1018.9 1009.7
01 22.09 СЗ 1
{2}
н/о н/о +0.5 -0.1 96 -2 -2 1019.4 1010.2
02 22.09 ЮЗ 1
{2}
н/о н/о -0.2 -0.7 96 -2 -2 1019.9 1010.7
03 22.09 Ю 2
{3}
н/о н/о -0.7 -1.2 96 -5 -5 1020.6 1011.4
04 22.09 Ю 2
{3}
н/о н/о -0.2 -0.6 97 -4 -4 1021.2 1012.0
05 22.09 Ю 2
{3}
н/о н/о -0.1 -0.5 97 -4 -4 1021.8 1012.5
06 22.09 ЮЗ 2
{3}
н/о н/о -0.4 -0.7 98 -4 -4 1022.3 1013.1 -1.0 +5.5
07 22.09 Ю 2
{2}
н/о н/о -0.1 -0.5 97 -4 -4 1022.7 1013.5
08 22.09 Ю 1
{3}
н/о н/о +0.8 +0.4 97 -1 -1 1023.1 1013.9
09 22.09 ЮВ 1
{2}
н/о н/о +2.5 +2.1 97 +1 +1 1023.2 1014.1
10 22.09 В 1
{2}
н/о н/о +5.8 +4.9 94 +4 +4 1022.9 1013.9
11 22.09 ЮВ 2
{4}
н/о н/о +8.1 +2.8 69 +6 +6 1022.6 1013.7
12 22.09 Ю 2
{5}
н/о н/о +9.7 +0.5 53 +9 +9 1022.5 1013.6
13 22.09 ЮВ 2
{7}
н/о н/о +10.3 -1.3 44 +9 +9 1022.2 1013.3
14 22.09 В 4
{6}
н/о н/о +10.3 -2.4 41 +8 +8 1022.0 1013.2
15 22.09 В 4
{7}
н/о н/о +10.1 -2.4 41 +8 +8 1021.9 1013.0
16 22.09 В 2
{7}
н/о н/о +8.9 -2.0 46 +8 +8 1021.7 1012.8
17 22.09 Ю 1
{6}
н/о н/о +6.1 -0.5 63 +5 +5 1021.8 1012.8
18 22.09 штиль 0
{7}
н/о н/о +2.4 -0.2 83 +1 +1 1022.1 1013.0 -0.7 +10.8
19 22.09 ЮЗ 1
{4}
н/о н/о +1.1 -1.2 85 -1 -1 1022.5 1013.4
20 22.09 ЮЗ 2
{3}
н/о н/о -0.1 -1.7 89 -4 -4 1022.6 1013.4
21 22.09 ЮВ 1
{3}
н/о н/о -0.5 -1.8 91 -3 -3 1022.9 1013.6
22 22.09 Ю 1
{3}
н/о н/о -0.8 -1.9 92 -3 -3 1023.0 1013.7
23 22.09 Ю 1
{2}
н/о н/о -0.6 -1.7 92 -3 -3 1022.9 1013.6

 

Местоположение метеостанции Мосьен аэропорт (Норвегия): широта 65.78 долгота 13.22 высота над уровнем моря 72 м.

В архиве по умолчанию представлена погода в Мосьен аэропорту за последнюю неделю. Архивные данные за месяц целиком и за предыдущие месяцы, начиная с января 2011 года, Вы можете получить, выбрав интересующий диапазон дат из раскрывающегося списка и нажав кнопку "Ввод!".


*Определитесь, кто Вы:
робот инопланетянин человек

Внимание! Время в таблицах - всемирное. Для получения местного времени необходимо прибавить поправку, которая равна 1 ч.

Смотрите также архив погоды в соседних городах и на ближайших метеорологических станциях:

Погода в Лаксфорсе (Норвегия) (18 км)
Погода в Хьётте (Норвегия) (36 км)
Погода в Саннесшёэн аэропорту (Норвегия) (40 км)
Погода в Сельджеля (Норвегия) (42 км)
Погода в Брённёйсунн аэропорту (Норвегия) (58 км)
Погода в Скамдале (Норвегия) (60 км)
Погода в Вега-Валсё (Норвегия) (63 км)
Погода в Маяватн (Норвегия) (68 км)
Погода в Солвер III (Норвегия) (71 км)
Погода в Варнтреске (Норвегия) (78 км)

Пояснения к столбцам:

Ветер - указаны скорость ветра в м/с - средняя за 10 мин, порывы в срок и между сроками (в фигурных скобках) и направление, откуда дует ветер: С - северный, СВ - северо-восточный, В - восточный, ЮВ - юго-восточный, Ю - южный, ЮЗ - юго-западный, З - западный, СЗ - северо-западный.
Видимость - горизонтальная дальность видимости в метрах или километрах. При видимости от 1 до 10 км при отсутствии осадков обычно наблюдается дымка, при ухудшении видимости до 1 км и менее - туман. В сухую погоду видимость может ухудшаться дымом, пылью или мглою.
Явления - указаны атмосферные явления, наблюдавшиеся в срок или в последний час перед сроком; фигурными скобками обозначены явления, наблюдавшиеся между сроками (за 1-3 часа до срока); квадратными скобками обозначены град или гололедные отложения с указанием их диаметра в мм.
Облачность - указаны через наклонную черту общая и нижняя облачность в баллах и высота нижней границы облаков в метрах; квадратными скобками обозначены формы облаков: Ci - перистые, Cs - перисто-слоистые, Cc - перисто-кучевые, Ac - высококучевые, As - высокослоистые, Sc - слоисто-кучевые, Ns - слоисто-дождевые, Cu - кучевые, Cb - кучево-дождевые. Подробнее классификацию облаков см. в Атласе облаков (PDF).
T - Температура воздуха - температура, измеренная на высоте 2 м над землей.
Td - Температура точки росы - температура, при понижении до которой содержащийся в воздухе водяной пар достигнет насыщения.
f - Относительная влажность воздуха - влажноcть воздуха, измеренная на высоте 2 м над землей.
Te - Эффективная температура - температура, которую ощущает одетый по сезону человек в тени. Характеристика душности погоды. При расчете учитывается влияние влажности воздуха и скорости ветра на теплоощущения человека.
Tes - Эффективная температура на солнце - температура, которую ощущает человек, с поправкой на солнечный нагрев. Характеристика знойности погоды. Зависит от высоты солнца над горизонтом, облачности и скорости ветра. Ночью, в пасмурную погоду, а также при ветре 12 м/с и более поправка равна нулю.
P - Атмосферное давление - приведенное к уровню моря атмосферное давление.
Po - Атмосферное давление - измеренное на уровне метеостанции атмосферное давление.
Tmin - Минимальная температура - минимум температуры воздуха на высоте 2 м над землей.
Tmax - Максимальная температура - максимум температуры воздуха на высоте 2 м над землей.
R - Количество осадков - Количество выпавших осадков за период времени, мм. При наведении курсора мыши на число - период времени, за который выпало указанное количество осадков.
R24 - Количество осадков - Количество выпавших осадков за 24 часа, мм.
S - Снежный покров - Высота снежного покрова, см. При наведении курсора мыши на число - состояние снежного покрова и степень покрытия местности в баллах.